Back to catalog

FLOCK 4BE 25

AliveScienceSSO
NORAD 60487·PAYLOAD·🇺🇸 United States

Launched Aug 16, 2024 from Vandenberg Space Force Base

Loading…

Next Passes (next 24 hours)

TLE

FreshSource: CelesTrak SupGP

Epoch: Sep 14, 2026, 12:45 UTC

1 60487C 24149AH  26257.53134259  .00037664  00000+0  90705-3 0  2575
2 60487  97.3749 341.4047 0000899 308.5310 224.9685 15.41274248    10

Track FLOCK 4BE 25 in real time with AllMySat

Download on the App Store